Simultaneous Nadir Overpasses (SNOs) Predictions

Prediction of SNOs between NOAA-20 and NOAA-19 Satellite Orbit:

Table of predicted SNOs for the next 14.0 days since TLE Epoch: 12/5/2020
Index Date (NOAA-20) Time (NOAA-20) Lat,Lon (NOAA-20) SZA (NOAA-20 ) Date (NOAA-19) Time (NOAA-19) Lat,Lon (NOAA-19) SZA (NOAA-19 ) Distance(km) Time Diff (sec)
1 12/11/2020 23:49:19 78.76, 153.57 102.98 12/11/2020 23:48:06 78.73, 152.69 103.06 19.27 73
2 12/12/2020 00:40:05 -78.81, -39.47 76.94 12/12/2020 00:39:06 -78.83, -39.35 76.91 3.21 59
3 12/12/2020 01:30:51 78.83, 127.70 103.10 12/12/2020 01:30:04 78.82, 127.81 103.09 3.20 47
4 12/12/2020 02:21:35 -78.82, -64.87 76.93 12/12/2020 02:21:07 -78.81, -64.98 76.91 2.60 28
5 12/12/2020 03:12:21 78.84, 102.30 103.11 12/12/2020 03:12:04 78.83, 102.43 103.10 2.83 17
6 12/12/2020 04:03:05 -78.82, -90.26 76.92 12/12/2020 04:03:07 -78.83, -90.37 76.90 2.46 2
7 12/12/2020 04:53:51 78.84, 76.91 103.12 12/12/2020 04:54:04 78.85, 77.05 103.11 3.19 13
8 12/12/2020 05:44:35 -78.82,-115.65 76.91 12/12/2020 05:45:07 -78.84,-115.75 76.89 3.03 32
9 12/12/2020 06:35:21 78.84, 51.52 103.13 12/12/2020 06:36:05 78.83, 51.42 103.11 2.51 44
10 12/12/2020 07:26:06 -78.86,-141.29 76.84 12/12/2020 07:27:07 -78.86,-141.13 76.88 3.37 61
11 12/12/2020 08:16:51 78.85, 26.12 103.14 12/12/2020 08:18:05 78.85, 26.04 103.12 1.69 74



Historial Predications of SNOs between NOAA-20 and NOAA-19
